Stündliche Wetter Barra do Piraí

Heute, 30 Oktober, Freitag

Zeit Temperatur Niederschläge Wind Luftdruck Luftfeuchtigkeit
00:00 +21°C° 0.8 mm 1 m/S 726 mmHg 96%
01:00 +21°C° 0.2 mm 1 m/S 726 mmHg 95%
02:00 +21°C° 0.2 mm 1 m/S 726 mmHg 95%
03:00 +22°C° 0 mm 1 m/S 726 mmHg 96%
04:00 +22°C° 0 mm 1 m/S 726 mmHg 95%
05:00 +20°C° 0 mm 0 m/S 726 mmHg 95%
06:00 +20°C° 0 mm 0 m/S 727 mmHg 94%
07:00 +21°C° 0 mm 0 m/S 727 mmHg 90%
08:00 +22°C° 0 mm 0 m/S 727 mmHg 86%
09:00 +26°C° 0 mm 1 m/S 727 mmHg 82%
10:00 +26°C° 0.2 mm 1 m/S 727 mmHg 81%
11:00 +26°C° 0.2 mm 2 m/S 727 mmHg 81%
12:00 +26°C° 0.2 mm 2 m/S 727 mmHg 81%
13:00 +25°C° 0.6 mm 2 m/S 727 mmHg 85%
14:00 +24°C° 0.6 mm 3 m/S 726 mmHg 90%
15:00 +22°C° 0.6 mm 3 m/S 726 mmHg 95%
16:00 +21°C° 2.8 mm 3 m/S 726 mmHg 95%
17:00 +20°C° 2.8 mm 4 m/S 727 mmHg 96%
18:00 +19°C° 2.8 mm 4 m/S 727 mmHg 97%
19:00 +19°C° 1 mm 4 m/S 728 mmHg 97%
20:00 +19°C° 1 mm 4 m/S 728 mmHg 97%
21:00 +18°C° 1 mm 4 m/S 729 mmHg 97%
22:00 +18°C° 0.9 mm 4 m/S 729 mmHg 97%
23:00 +18°C° 0.9 mm 3 m/S 729 mmHg 98%

Morgen, 31 Oktober, Samstag

Zeit Temperatur Niederschläge Wind Luftdruck Luftfeuchtigkeit
00:00 +18°C° 0.9 mm 3 m/S 728 mmHg 98%
01:00 +18°C° 0.9 mm 2 m/S 728 mmHg 98%
02:00 +18°C° 0.9 mm 2 m/S 728 mmHg 98%
03:00 +18°C° 0.9 mm 2 m/S 727 mmHg 98%
04:00 +18°C° 0.4 mm 2 m/S 727 mmHg 98%
05:00 +18°C° 0.4 mm 2 m/S 728 mmHg 98%
06:00 +19°C° 0.4 mm 1 m/S 728 mmHg 98%
07:00 +20°C° 0.2 mm 1 m/S 728 mmHg 97%
08:00 +19°C° 0.2 mm 2 m/S 728 mmHg 96%
09:00 +19°C° 0.2 mm 2 m/S 729 mmHg 94%
10:00 +20°C° 0.2 mm 2 m/S 728 mmHg 92%
11:00 +21°C° 0.2 mm 2 m/S 728 mmHg 89%
12:00 +21°C° 0.2 mm 2 m/S 728 mmHg 87%
13:00 +21°C° 0.1 mm 2 m/S 728 mmHg 87%
14:00 +21°C° 0.1 mm 2 m/S 727 mmHg 88%
15:00 +21°C° 0.1 mm 2 m/S 727 mmHg 89%
16:00 +20°C° 0.1 mm 2 m/S 727 mmHg 91%
17:00 +19°C° 0.1 mm 2 m/S 727 mmHg 93%
18:00 +19°C° 0.1 mm 2 m/S 727 mmHg 95%
19:00 +19°C° 0.1 mm 2 m/S 728 mmHg 96%
20:00 +20°C° 0.1 mm 1 m/S 728 mmHg 96%
21:00 +20°C° 0.1 mm 1 m/S 728 mmHg 97%
22:00 +20°C° 0.1 mm 1 m/S 728 mmHg 97%
23:00 +20°C° 0.1 mm 1 m/S 728 mmHg 97%

übermorgen, 1 November, Sonntag

Zeit Temperatur Niederschläge Wind Luftdruck Luftfeuchtigkeit
00:00 +20°C° 0.1 mm 1 m/S 728 mmHg 97%
01:00 +20°C° 0.2 mm 1 m/S 727 mmHg 98%
02:00 +20°C° 0.2 mm 1 m/S 727 mmHg 98%
03:00 +20°C° 0.2 mm 1 m/S 726 mmHg 98%
04:00 +20°C° 0.1 mm 1 m/S 726 mmHg 98%
05:00 +19°C° 0.1 mm 1 m/S 726 mmHg 97%
06:00 +19°C° 0.1 mm 1 m/S 727 mmHg 97%
07:00 +20°C° 0.2 mm 1 m/S 727 mmHg 96%
08:00 +20°C° 0.2 mm 1 m/S 727 mmHg 96%
09:00 +20°C° 0.2 mm 1 m/S 727 mmHg 95%
10:00 +19°C° 0.2 mm 2 m/S 727 mmHg 94%
11:00 +20°C° 0.2 mm 2 m/S 727 mmHg 92%
12:00 +20°C° 0.2 mm 2 m/S 726 mmHg 91%
13:00 +20°C° 0.3 mm 3 m/S 726 mmHg 92%
14:00 +19°C° 0.3 mm 3 m/S 726 mmHg 93%
15:00 +19°C° 0.3 mm 3 m/S 725 mmHg 94%
16:00 +18°C° 0.6 mm 4 m/S 726 mmHg 95%
17:00 +17°C° 0.6 mm 4 m/S 726 mmHg 95%
18:00 +16°C° 0.6 mm 5 m/S 727 mmHg 96%
19:00 +15°C° 1.1 mm 4 m/S 727 mmHg 97%
20:00 +16°C° 1.1 mm 3 m/S 727 mmHg 97%
21:00 +14°C° 1.1 mm 3 m/S 728 mmHg 97%
22:00 +15°C° 0.1 mm 2 m/S 728 mmHg 97%
23:00 +15°C° 0.1 mm 1 m/S 728 mmHg 97%

2 November, Montag

Zeit Temperatur Niederschläge Wind Luftdruck Luftfeuchtigkeit
00:00 +15°C° 0.1 mm 1 m/S 727 mmHg 97%
01:00 +15°C° 0 mm 1 m/S 727 mmHg 97%
02:00 +14°C° 0 mm 1 m/S 727 mmHg 97%
03:00 +14°C° 0 mm 1 m/S 726 mmHg 97%
04:00 +14°C° 0 mm 1 m/S 727 mmHg 97%
05:00 +14°C° 0 mm 1 m/S 727 mmHg 96%
06:00 +15°C° 0 mm 1 m/S 727 mmHg 96%
07:00 +16°C° 0 mm 1 m/S 728 mmHg 89%
08:00 +19°C° 0 mm 1 m/S 728 mmHg 82%
09:00 +21°C° 0 mm 1 m/S 728 mmHg 75%
10:00 +20°C° 0.1 mm 2 m/S 728 mmHg 75%
11:00 +20°C° 0.1 mm 2 m/S 728 mmHg 75%
12:00 +20°C° 0.1 mm 3 m/S 727 mmHg 75%
13:00 +20°C° 0 mm 3 m/S 727 mmHg 73%
14:00 +20°C° 0 mm 3 m/S 727 mmHg 72%
15:00 +20°C° 0 mm 3 m/S 727 mmHg 70%
16:00 +19°C° 0 mm 3 m/S 727 mmHg 73%
17:00 +18°C° 0 mm 3 m/S 727 mmHg 76%
18:00 +17°C° 0 mm 2 m/S 727 mmHg 80%
19:00 +17°C° 0 mm 2 m/S 727 mmHg 82%
20:00 +16°C° 0 mm 1 m/S 728 mmHg 85%
21:00 +16°C° 0 mm 1 m/S 728 mmHg 88%
22:00 +16°C° 0 mm 1 m/S 728 mmHg 88%
23:00 +16°C° 0 mm 1 m/S 728 mmHg 88%

3 November, Dienstag

Zeit Temperatur Niederschläge Wind Luftdruck Luftfeuchtigkeit
00:00 +16°C° 0 mm 1 m/S 728 mmHg 89%
01:00 +15°C° 0 mm 1 m/S 728 mmHg 89%
02:00 +15°C° 0 mm 1 m/S 727 mmHg 89%
03:00 +15°C° 0 mm 1 m/S 727 mmHg 88%
04:00 +14°C° 0 mm 0 m/S 727 mmHg 88%
05:00 +14°C° 0 mm 0 m/S 727 mmHg 87%
06:00 +14°C° 0 mm 0 m/S 728 mmHg 87%
07:00 +16°C° 0 mm 0 m/S 728 mmHg 83%
08:00 +17°C° 0 mm 0 m/S 729 mmHg 78%
09:00 +19°C° 0 mm 0 m/S 729 mmHg 74%
10:00 +22°C° 0 mm 1 m/S 729 mmHg 71%
11:00 +23°C° 0 mm 1 m/S 729 mmHg 68%
12:00 +24°C° 0 mm 2 m/S 729 mmHg 65%
13:00 +23°C° 0.2 mm 2 m/S 728 mmHg 69%
14:00 +23°C° 0.2 mm 2 m/S 728 mmHg 73%
15:00 +21°C° 0.2 mm 3 m/S 728 mmHg 77%
16:00 +20°C° 0 mm 2 m/S 728 mmHg 79%
17:00 +19°C° 0 mm 2 m/S 728 mmHg 82%
18:00 +18°C° 0 mm 2 m/S 728 mmHg 85%
19:00 +18°C° 0 mm 2 m/S 728 mmHg 85%
20:00 +18°C° 0 mm 1 m/S 728 mmHg 86%
21:00 +18°C° 0 mm 1 m/S 729 mmHg 86%
22:00 +18°C° 0.1 mm 1 m/S 729 mmHg 88%
23:00 +18°C° 0.1 mm 1 m/S 729 mmHg 90%

4 November, Mittwoch

Zeit Temperatur Niederschläge Wind Luftdruck Luftfeuchtigkeit
00:00 +16°C° 0.1 mm 0 m/S 728 mmHg 92%
01:00 +16°C° 0 mm 0 m/S 728 mmHg 92%
02:00 +16°C° 0 mm 0 m/S 728 mmHg 93%
03:00 +15°C° 0 mm 0 m/S 728 mmHg 93%
04:00 +16°C° 0 mm 0 m/S 728 mmHg 93%
05:00 +16°C° 0 mm 0 m/S 728 mmHg 93%
06:00 +16°C° 0 mm 0 m/S 728 mmHg 92%
07:00 +17°C° 0.1 mm 0 m/S 729 mmHg 89%
08:00 +18°C° 0.1 mm 0 m/S 729 mmHg 85%
09:00 +18°C° 0.1 mm 0 m/S 730 mmHg 82%
10:00 +18°C° 0.6 mm 0 m/S 729 mmHg 85%
11:00 +20°C° 0.6 mm 1 m/S 729 mmHg 88%
12:00 +19°C° 0.6 mm 1 m/S 729 mmHg 91%
13:00 +20°C° 0 mm 1 m/S 729 mmHg 86%
14:00 +20°C° 0 mm 2 m/S 728 mmHg 81%
15:00 +21°C° 0 mm 2 m/S 728 mmHg 76%
16:00 +21°C° 0 mm 1 m/S 728 mmHg 81%
17:00 +20°C° 0 mm 1 m/S 728 mmHg 85%
18:00 +20°C° 0 mm 1 m/S 728 mmHg 89%
19:00 +19°C° 0.1 mm 1 m/S 728 mmHg 91%
20:00 +19°C° 0.1 mm 1 m/S 728 mmHg 92%
21:00 +17°C° 0.1 mm 0 m/S 729 mmHg 94%
22:00 +17°C° 0 mm 0 m/S 729 mmHg 94%
23:00 +17°C° 0 mm 0 m/S 728 mmHg 94%
Mehr zeigen